Regional Weather Roundup
Issued by NWS

Home | Current Version | Previous Version | Graphics & Text | Print | Product List | Glossary On
Versions: 1 2 3 4 5 6 7 8 9 10 11 12 13 14 15 16 17 18 19 20 21 22 23 24 25 26 27 28 29 30 31 32 33 34 35 36 37 38 39 40 41 42 43 44 45 46 47 48 49 50
157
ASUS43 KMPX 290610
RWRMN
WEATHER ROUNDUP FOR MINNESOTA
NATIONAL WEATHER SERVICE TWIN CITIES/CHANHASSEN MN
100 AM CDT SAT APR 29 2017


NOTE: "FAIR" INDICATES FEW OR NO CLOUDS BELOW 12,000 FEET WITH NO
SIGNIFICANT WEATHER AND/OR OBSTRUCTIONS TO VISIBILITY. N/A MEANS
CURRENT SKY AND/OR WEATHER CONDITIONS ARE NOT AVAILABLE.

MNZ060>063-068>070-290700-
   Twin Cities Metro

CITY           SKY/WX    TMP DP  RH WIND       PRES   REMARKS
TWIN CITIES    PTCLDY    44  25  47 N17       30.15R
6HR MIN TEMP:  40; 6HR MAX TEMP:  50;

ST PAUL        CLEAR     43  29  57 N13       30.16R
CRYSTAL        CLEAR     43  24  47 N12       30.15R
LAKEVILLE      PTCLDY    36  30  80 CALM      30.14R
EDEN PRAIRIE   PTCLDY    44  24  45 N10       30.14R
6HR MIN TEMP:  41; 6HR MAX TEMP:  50;

SOUTH ST PAUL  CLOUDY    43  29  57 N6        30.15R
LAKE ELMO      FAIR      41  32  70 N7        30.15R
$$
MNZ001>005-007-008-013>017-022>024-027-028-290700-
   Northwest Minnesota

CITY           SKY/WX    TMP DP  RH WIND       PRES   REMARKS
BEMIDJI        CLEAR     28  22  76 CALM      30.19R
HALLOCK        CLEAR     30  23  74 N3        30.21R
ROSEAU         CLEAR     36  16  44 NW5       30.20R
WARROAD        CLEAR     34  16  47 NW6       30.20R WCI  29
THIEF RVR FALL CLEAR     34  19  54 N5        30.21R WCI  30
CROOKSTON      CLEAR     39  21  48 E3        30.22R
FOSSTON        CLEAR     25  18  74 CALM      30.21R
DETROIT LAKES  CLEAR     34  27  75 CALM      30.20R
MOORHEAD       CLEAR     36  27  69 CALM      30.21R
PARK RAPIDS    CLEAR     30  20  66 S3        30.19R
MAHNOMEN       FAIR      32  26  80 CALM      30.19R
$$
MNZ006-009>011-018-025>026-290700-
   North Central Minnesota

CITY           SKY/WX    TMP DP  RH WIND       PRES   REMARKS
FLAG ISLAND    CLEAR     34  27  75 NW3       30.18R
INTL FALLS     CLEAR     25  21  85 CALM      30.18R
6HR MIN TEMP:  24; 6HR MAX TEMP:  45;

WASKISH        CLEAR     27  25  93 CALM      30.19R
BIG FORK       CLEAR     27  25  93 CALM      30.18R
LONGVILLE      CLEAR     30  28  93 CALM      30.18R
GRAND RAPIDS   CLEAR     29  22  75 CALM      30.20R
CRANE LAKE     CLEAR     21  21 100 CALM      30.19R
ORR            CLEAR     25  19  80 CALM      30.15R
COOK           CLEAR     25  23  93 CALM      30.18R
WALKER         FAIR      28  23  80 W3        30.19R
$$
MNZ012-019>021-037-290700-
   Northeast Minnesota

CITY           SKY/WX    TMP DP  RH WIND       PRES   REMARKS
DULUTH         PTCLDY    33  25  72 N5        30.17R WCI  29
6HR MIN TEMP:  31; 6HR MAX TEMP:  46;

ELY            CLEAR     25  23  93 CALM      30.16R
HIBBING        CLEAR     24  22  91 CALM      30.18R
EVELETH        CLEAR     28  24  88 CALM      30.18R
DULUTH HARBOR  CLEAR     37  30  75 CALM      30.20R
TWO HARBORS    CLEAR     34  27  75 CALM      30.16R
SILVER BAY     CLEAR     28  27  93 CALM      30.16R
GRAND MARAIS     N/A     32  28  85 N5        30.16  WCI  27
G MARAIS ARPRT CLEAR     25  19  80 CALM      30.13R
$$
MNZ029>031-032-039>041-046>048-054>057-064-290700-
   West Central Minnesota

CITY           SKY/WX    TMP DP  RH WIND       PRES   REMARKS
FERGUS FALLS   CLOUDY    36  23  60 E5        30.20R
WHEATON        CLEAR     36  23  60 CALM      30.21R
MORRIS         CLEAR     34  25  69 CALM      30.18R
ALEXANDRIA     CLEAR     39  21  48 N5        30.19R
ELBOW LAKE     FAIR      36  34  90 E3        30.19R
WADENA         CLEAR     30  21  69 N3        30.18R
GLENWOOD       CLEAR     37  21  52 N7        30.18R
APPLETON       CLEAR     34  25  69 N8        30.18R WCI  27
BENSON         CLEAR     34  21  60 NE7       30.19R WCI  28
ORTONVILLE     CLEAR     37  25  60 NE12      30.17S
MADISON        CLEAR     37  28  70 N6        30.17R
WILLMAR        FAIR      37  28  70 N9        30.18R
$$
MNZ033>034-036-042>043-049>051-058-059-290700-
   Central Minnesota

CITY           SKY/WX    TMP DP  RH WIND       PRES   REMARKS
ST CLOUD       CLEAR     40  23  50 NE6       30.18R
6HR MIN TEMP:  39; 6HR MAX TEMP:  50;

SAUK CENTRE    FAIR      36  21  55 N3        30.18R
PAYNESVILLE    CLEAR     38  22  54 CALM      30.18R
AITKIN         CLEAR     32  27  80 CALM      30.17R
PINE RIVER     CLEAR     28  25  86 CALM      30.21R
BRAINERD       CLEAR     34  23  64 CALM      30.19R
STAPLES        CLEAR     30  23  74 CALM      30.19R
LONG PRAIRIE   FAIR      32  23  69 CALM      30.19R
LITTLE FALLS   CLEAR     30  23  74 CALM      30.19R
LITCHFIELD     CLOUDY    37  27  65 VRB5      30.16R
BUFFALO        CLEAR     42  22  46 N9        30.17R
MAPLE LAKE     CLEAR     41  26  53 N7        30.17R
HUTCHINSON     CLEAR     38  29  70 N3        30.16R
$$
MNZ037-044-045-052-053-290700-
   East Central Minnesota

CITY           SKY/WX    TMP DP  RH WIND       PRES   REMARKS
PRINCETON      CLEAR     41  27  56 N5        30.19R
MORA           CLEAR     36  25  64 NE5       30.21R
CAMBRIDGE      CLEAR     43  28  56 N5        30.17R
RUSH CITY      CLEAR     38  27  64 NE6       30.18R
MOOSE LAKE     CLEAR     32  27  80 CALM      30.17R
HINCKLEY       FAIR      36  27  69 N5        30.19R
CLOQUET        CLEAR     32  23  69 N3        30.17R
MCGREGOR       CLEAR     34  27  75 CALM      30.19R
$$
MNZ071>073-080-081-089-090-097-098-290700-
   Southwest Minnesota

CITY           SKY/WX    TMP DP  RH WIND       PRES   REMARKS
MONTEVIDEO     PTCLDY    36  25  64 NE8       30.17R
GRANITE FALLS  PTCLDY    40  27  59 N9        30.18R
CANBY          CLOUDY    33  26  78 CALM      30.17S
MARSHALL       CLOUDY    32  25  75 W6        30.17R WCI  26
REDWOOD FALLS  CLOUDY    39  25  57 CALM      30.15R
OLIVIA         CLOUDY    34  28  80 N8        30.16R WCI  27
PIPESTONE      CLOUDY    36  21  55 NE6       30.15R
WINDOM         PTCLDY    36  27  69 N9        30.14R
WORTHINGTON    PTCLDY    34  26  72 N9        30.14  WCI  27
JACKSON        PTCLDY    34  28  80 CALM      30.15R
TRACY          PTCLDY    37  27  66 NW7       30.16R
SLAYTON        PTCLDY    32  24  71 CALM      30.15R
$$
MNZ065>067-074>077-082>085-091>093-290700-
   South Central Minnesota

CITY           SKY/WX    TMP DP  RH WIND       PRES   REMARKS
MANKATO        MOCLDY    41  28  60 CALM      30.14R
NEW ULM        CLOUDY    39  25  56 N3        30.15R
ST JAMES       MOCLDY    36  30  80 CALM      30.17R
FAIRMONT       PTCLDY    37  31  78 N6        30.15R
GLENCOE        CLOUDY    41  30  64 N5        30.14R
FARIBAULT      PTCLDY    36  32  87 CALM      30.13R
OWATONNA       CLOUDY    36  30  80 CALM      30.13R
WASECA         MOCLDY    34  32  93 CALM      30.15R
ALBERT LEA     CLOUDY    37  30  75 NE6       30.13R
$$
MNZ078>079-086>088-094>096-290700-
   Southeast Minnesota

CITY           SKY/WX    TMP DP  RH WIND       PRES   REMARKS
ROCHESTER      CLOUDY    38  31  76 N6        30.13R
6HR MIN TEMP:  37; 6HR MAX TEMP:  44;

RED WING       PTCLDY    36  28  75 CALM      30.13R
STANTON        CLOUDY    35  32  90 CALM      30.13R
DODGE CENTER   MOCLDY    37  30  75 CALM      30.12R
WINONA         PTCLDY    39  34  81 CALM      30.15R
AUSTIN         CLOUDY    39  30  70 CALM      30.12R
PRESTON        PTCLDY    39  31  74 N5        30.13R
$$
ABBREVIATIONS USED IN REMARKS
   TC - TEMPERATURES IN CELSIUS
  WCI - WIND CHILL INDEX
   HX - HEAT INDEX
  VSB - VISIBILITY
$$




USA.gov is the U.S. government's official web portal to all federal, state and local government web resources and services.